Year,Month,Day,Hour,Minute,Value (Times are PST for temperature in C)
2015,07,19,00,00,23.20
2015,07,19,00,01,23.20
2015,07,19,00,02,23.20
2015,07,19,00,03,23.10
2015,07,19,00,04,23.10
2015,07,19,00,05,23.10
2015,07,19,00,06,23.10
2015,07,19,00,07,23.10
2015,07,19,00,08,23.10
2015,07,19,00,09,23.10
2015,07,19,00,10,23.10
2015,07,19,00,11,23.00
2015,07,19,00,12,23.00
2015,07,19,00,13,23.00
2015,07,19,00,14,22.90
2015,07,19,00,15,22.90
2015,07,19,00,16,22.90
2015,07,19,00,17,22.90
2015,07,19,00,18,22.90
2015,07,19,00,19,22.80
2015,07,19,00,20,22.80
2015,07,19,00,21,22.80
2015,07,19,00,22,22.80
2015,07,19,00,23,22.70
2015,07,19,00,24,22.70
2015,07,19,00,25,22.70
2015,07,19,00,26,22.60
2015,07,19,00,27,22.60
2015,07,19,00,28,22.60
2015,07,19,00,29,22.60
2015,07,19,00,30,22.60
2015,07,19,00,31,22.50
2015,07,19,00,32,22.50
2015,07,19,00,33,22.50
2015,07,19,00,34,22.50
2015,07,19,00,35,22.50
2015,07,19,00,36,22.50
2015,07,19,00,37,22.50
2015,07,19,00,38,22.40
2015,07,19,00,39,22.40
2015,07,19,00,40,22.40
2015,07,19,00,41,22.40
2015,07,19,00,42,22.40
2015,07,19,00,43,22.30
2015,07,19,00,44,22.30
2015,07,19,00,45,22.30
2015,07,19,00,46,22.30
2015,07,19,00,47,22.30
2015,07,19,00,48,22.30
2015,07,19,00,49,22.30
2015,07,19,00,50,22.30
2015,07,19,00,51,22.30
2015,07,19,00,52,22.30
2015,07,19,00,53,22.20
2015,07,19,00,54,22.20
2015,07,19,00,55,22.20
2015,07,19,00,56,22.20
2015,07,19,00,57,22.20
2015,07,19,00,58,22.20
2015,07,19,00,59,22.10
2015,07,19,01,00,22.10
2015,07,19,01,01,22.10
2015,07,19,01,02,22.10
2015,07,19,01,03,22.10
2015,07,19,01,04,22.10
2015,07,19,01,05,22.10
2015,07,19,01,06,22.00
2015,07,19,01,07,22.00
2015,07,19,01,08,22.00
2015,07,19,01,09,22.00
2015,07,19,01,10,22.00
2015,07,19,01,11,21.90
2015,07,19,01,12,21.90
2015,07,19,01,13,21.90
2015,07,19,01,14,21.90
2015,07,19,01,15,21.90
2015,07,19,01,16,21.90
2015,07,19,01,17,21.90
2015,07,19,01,18,21.90
2015,07,19,01,19,21.90
2015,07,19,01,20,21.90
2015,07,19,01,21,21.90
2015,07,19,01,22,21.90
2015,07,19,01,23,21.80
2015,07,19,01,24,21.80
2015,07,19,01,25,21.80
2015,07,19,01,26,21.80
2015,07,19,01,27,21.80
2015,07,19,01,28,21.80
2015,07,19,01,29,21.80
2015,07,19,01,30,21.80
2015,07,19,01,31,21.80
2015,07,19,01,32,21.80
2015,07,19,01,33,21.80
2015,07,19,01,34,21.80
2015,07,19,01,35,21.80
2015,07,19,01,36,21.80
2015,07,19,01,37,21.70
2015,07,19,01,38,21.70
2015,07,19,01,39,21.70
2015,07,19,01,40,21.70
2015,07,19,01,41,21.70
2015,07,19,01,42,21.70
2015,07,19,01,43,21.70
2015,07,19,01,44,21.70
2015,07,19,01,45,21.60
2015,07,19,01,46,21.60
2015,07,19,01,47,21.60
2015,07,19,01,48,21.60
2015,07,19,01,49,21.60
2015,07,19,01,50,21.50
2015,07,19,01,51,21.50
2015,07,19,01,52,21.50
2015,07,19,01,53,21.50
2015,07,19,01,54,21.50
2015,07,19,01,55,21.50
2015,07,19,01,56,21.40
2015,07,19,01,57,21.40
2015,07,19,01,58,21.40
2015,07,19,01,59,21.40
2015,07,19,02,00,21.40
2015,07,19,02,01,21.30
2015,07,19,02,02,21.30
2015,07,19,02,03,21.30
2015,07,19,02,04,21.30
2015,07,19,02,05,21.20
2015,07,19,02,06,21.20
2015,07,19,02,07,21.20
2015,07,19,02,08,21.20
2015,07,19,02,09,21.20
2015,07,19,02,10,21.20
2015,07,19,02,11,21.20
2015,07,19,02,12,21.20
2015,07,19,02,13,21.20
2015,07,19,02,14,21.20
2015,07,19,02,15,21.20
2015,07,19,02,16,21.20
2015,07,19,02,17,21.20
2015,07,19,02,18,21.20
2015,07,19,02,19,21.20
2015,07,19,02,20,21.20
2015,07,19,02,21,21.20
2015,07,19,02,22,21.10
2015,07,19,02,23,21.10
2015,07,19,02,24,21.10
2015,07,19,02,25,21.10
2015,07,19,02,26,21.10
2015,07,19,02,27,21.10
2015,07,19,02,28,21.00
2015,07,19,02,29,21.00
2015,07,19,02,30,21.00
2015,07,19,02,31,21.00
2015,07,19,02,32,21.00
2015,07,19,02,33,20.90
2015,07,19,02,34,20.90
2015,07,19,02,35,20.90
2015,07,19,02,36,20.90
2015,07,19,02,37,20.90
2015,07,19,02,38,20.90
2015,07,19,02,39,20.90
2015,07,19,02,40,20.90
2015,07,19,02,41,20.90
2015,07,19,02,42,20.90
2015,07,19,02,43,20.80
2015,07,19,02,44,20.80
2015,07,19,02,45,20.80
2015,07,19,02,46,20.80
2015,07,19,02,47,20.80
2015,07,19,02,48,20.70
2015,07,19,02,49,20.70
2015,07,19,02,50,20.70
2015,07,19,02,51,20.70
2015,07,19,02,52,20.70
2015,07,19,02,53,20.70
2015,07,19,02,54,20.70
2015,07,19,02,55,20.70
2015,07,19,02,56,20.60
2015,07,19,02,57,20.60
2015,07,19,02,58,20.60
2015,07,19,02,59,20.60
2015,07,19,03,00,20.60
2015,07,19,03,01,20.60
2015,07,19,03,02,20.60
2015,07,19,03,06,20.50
2015,07,19,03,07,20.50
2015,07,19,03,08,20.50
2015,07,19,03,09,20.50
2015,07,19,03,10,20.40
2015,07,19,03,11,20.40
2015,07,19,03,12,20.40
2015,07,19,03,13,20.40
2015,07,19,03,14,20.40
2015,07,19,03,15,20.40
2015,07,19,03,16,20.40
2015,07,19,03,17,20.40
2015,07,19,03,18,20.40
2015,07,19,03,19,20.40
2015,07,19,03,20,20.40
2015,07,19,03,21,20.40
2015,07,19,03,22,20.40
2015,07,19,03,23,20.40
2015,07,19,03,24,20.40
2015,07,19,03,25,20.30
2015,07,19,03,26,20.30
2015,07,19,03,27,20.30
2015,07,19,03,28,20.30
2015,07,19,03,29,20.30
2015,07,19,03,30,20.30
2015,07,19,03,31,20.30
2015,07,19,03,32,20.30
2015,07,19,03,33,20.30
2015,07,19,03,34,20.30
2015,07,19,03,35,20.20
2015,07,19,03,36,20.20
2015,07,19,03,37,20.20
2015,07,19,03,38,20.20
2015,07,19,03,39,20.20
2015,07,19,03,40,20.20
2015,07,19,03,41,20.10
2015,07,19,03,42,20.10
2015,07,19,03,43,20.10
2015,07,19,03,44,20.10
2015,07,19,03,45,20.00
2015,07,19,03,46,20.00
2015,07,19,03,47,20.00
2015,07,19,03,48,19.90
2015,07,19,03,49,19.90
2015,07,19,03,50,19.90
2015,07,19,03,51,19.80
2015,07,19,03,52,19.80
2015,07,19,03,53,19.80
2015,07,19,03,54,19.80
2015,07,19,03,55,19.80
2015,07,19,03,56,19.80
2015,07,19,03,57,19.80
2015,07,19,03,58,19.80
2015,07,19,03,59,19.80
2015,07,19,04,00,19.80
2015,07,19,04,01,19.80
2015,07,19,04,02,19.80
2015,07,19,04,03,19.80
2015,07,19,04,04,19.80
2015,07,19,04,05,19.80
2015,07,19,04,06,19.70
2015,07,19,04,07,19.70
2015,07,19,04,08,19.70
2015,07,19,04,09,19.70
2015,07,19,04,10,19.70
2015,07,19,04,11,19.80
2015,07,19,04,12,19.80
2015,07,19,04,13,19.70
2015,07,19,04,14,19.70
2015,07,19,04,15,19.70
2015,07,19,04,16,19.70
2015,07,19,04,17,19.70
2015,07,19,04,18,19.70
2015,07,19,04,19,19.70
2015,07,19,04,20,19.70
2015,07,19,04,21,19.70
2015,07,19,04,22,19.60
2015,07,19,04,23,19.60
2015,07,19,04,24,19.60
2015,07,19,04,25,19.60
2015,07,19,04,26,19.60
2015,07,19,04,27,19.60
2015,07,19,04,28,19.60
2015,07,19,04,29,19.50
2015,07,19,04,30,19.50
2015,07,19,04,31,19.50
2015,07,19,04,32,19.40
2015,07,19,04,33,19.40
2015,07,19,04,34,19.40
2015,07,19,04,35,19.40
2015,07,19,04,36,19.30
2015,07,19,04,37,19.30
2015,07,19,04,38,19.30
2015,07,19,04,39,19.30
2015,07,19,04,40,19.30
2015,07,19,04,41,19.30
2015,07,19,04,42,19.30
2015,07,19,04,43,19.30
2015,07,19,04,44,19.30
2015,07,19,04,45,19.30
2015,07,19,04,46,19.30
2015,07,19,04,47,19.30
2015,07,19,04,48,19.30
2015,07,19,04,49,19.30
2015,07,19,04,50,19.30
2015,07,19,04,51,19.30
2015,07,19,04,52,19.30
2015,07,19,04,53,19.30
2015,07,19,04,54,19.30
2015,07,19,04,55,19.30
2015,07,19,04,56,19.30
2015,07,19,04,57,19.30
2015,07,19,04,58,19.20
2015,07,19,04,59,19.20
2015,07,19,05,00,19.20
2015,07,19,05,01,19.20
2015,07,19,05,02,19.20
2015,07,19,05,03,19.20
2015,07,19,05,04,19.20
2015,07,19,05,05,19.20
2015,07,19,05,06,19.20
2015,07,19,05,07,19.20
2015,07,19,05,08,19.20
2015,07,19,05,09,19.20
2015,07,19,05,10,19.20
2015,07,19,05,11,19.20
2015,07,19,05,12,19.20
2015,07,19,05,13,19.10
2015,07,19,05,14,19.10
2015,07,19,05,15,19.10
2015,07,19,05,16,19.10
2015,07,19,05,17,19.10
2015,07,19,05,18,19.10
2015,07,19,05,19,19.00
2015,07,19,05,20,19.00
2015,07,19,05,21,19.00
2015,07,19,05,22,18.90
2015,07,19,05,23,18.90
2015,07,19,05,24,18.90
2015,07,19,05,25,18.90
2015,07,19,05,26,18.90
2015,07,19,05,27,18.90
2015,07,19,05,28,18.90
2015,07,19,05,29,18.90
2015,07,19,05,30,18.90
2015,07,19,05,31,18.90
2015,07,19,05,32,18.90
2015,07,19,05,33,18.90
2015,07,19,05,34,18.90
2015,07,19,05,35,18.90
2015,07,19,05,36,18.90
2015,07,19,05,37,18.90
2015,07,19,05,38,18.90
2015,07,19,05,39,18.90
2015,07,19,05,40,18.80
2015,07,19,05,41,18.80
2015,07,19,05,42,18.80
2015,07,19,05,43,18.80
2015,07,19,05,44,18.80
2015,07,19,05,45,18.80
2015,07,19,05,46,18.80
2015,07,19,05,47,18.80
2015,07,19,05,48,18.80
2015,07,19,05,49,18.80
2015,07,19,05,50,18.80
2015,07,19,05,51,18.80
2015,07,19,05,52,18.80
2015,07,19,05,53,18.70
2015,07,19,05,54,18.70
2015,07,19,05,55,18.70
2015,07,19,05,56,18.70
2015,07,19,05,57,18.70
2015,07,19,05,58,18.70
2015,07,19,05,59,18.70
2015,07,19,06,00,18.70
2015,07,19,06,01,18.70
2015,07,19,06,02,18.70
2015,07,19,06,03,18.70
2015,07,19,06,04,18.70
2015,07,19,06,05,18.70
2015,07,19,06,06,18.70
2015,07,19,06,07,18.70
2015,07,19,06,08,18.70
2015,07,19,06,09,18.70
2015,07,19,06,10,18.60
2015,07,19,06,11,18.60
2015,07,19,06,12,18.60
2015,07,19,06,13,18.60
2015,07,19,06,14,18.60
2015,07,19,06,15,18.60
2015,07,19,06,16,18.60
2015,07,19,06,17,18.60
2015,07,19,06,18,18.70
2015,07,19,06,19,18.70
2015,07,19,06,20,18.70
2015,07,19,06,21,18.70
2015,07,19,06,22,18.70
2015,07,19,06,23,18.70
2015,07,19,06,24,18.70
2015,07,19,06,25,18.70
2015,07,19,06,26,18.80
2015,07,19,06,27,18.80
2015,07,19,06,28,18.80
2015,07,19,06,29,18.80
2015,07,19,06,30,18.80
2015,07,19,06,31,18.80
2015,07,19,06,32,18.80
2015,07,19,06,33,18.80
2015,07,19,06,34,18.80
2015,07,19,06,35,18.80
2015,07,19,06,36,18.80
2015,07,19,06,37,18.80
2015,07,19,06,38,18.80
2015,07,19,06,39,18.70
2015,07,19,06,40,18.80
2015,07,19,06,41,18.70
2015,07,19,06,42,18.70
2015,07,19,06,43,18.70
2015,07,19,06,44,18.70
2015,07,19,06,45,18.70
2015,07,19,06,46,18.70
2015,07,19,06,47,18.70
2015,07,19,06,48,18.70
2015,07,19,06,49,18.80
2015,07,19,06,50,18.80
2015,07,19,06,51,18.80
2015,07,19,06,52,18.80
2015,07,19,06,53,18.80
2015,07,19,06,54,18.90
2015,07,19,06,55,18.90
2015,07,19,06,56,19.00
2015,07,19,06,57,19.10
2015,07,19,06,58,19.10
2015,07,19,06,59,19.20
2015,07,19,07,00,19.20
2015,07,19,07,01,19.30
2015,07,19,07,02,19.30
2015,07,19,07,03,19.40
2015,07,19,07,04,19.40
2015,07,19,07,05,19.50
2015,07,19,07,06,19.60
2015,07,19,07,07,19.70
2015,07,19,07,08,19.80
2015,07,19,07,09,19.90
2015,07,19,07,10,19.90
2015,07,19,07,11,20.00
2015,07,19,07,12,20.10
2015,07,19,07,13,20.20
2015,07,19,07,14,20.30
2015,07,19,07,15,20.40
2015,07,19,07,16,20.40
2015,07,19,07,17,20.40
2015,07,19,07,18,20.40
2015,07,19,07,19,20.40
2015,07,19,07,20,20.40
2015,07,19,07,21,20.40
2015,07,19,07,22,20.50
2015,07,19,07,23,20.50
2015,07,19,07,24,20.60
2015,07,19,07,25,20.60
2015,07,19,07,26,20.70
2015,07,19,07,27,20.70
2015,07,19,07,28,20.70
2015,07,19,07,29,20.70
2015,07,19,07,30,20.80
2015,07,19,07,31,20.80
2015,07,19,07,32,20.90
2015,07,19,07,33,20.90
2015,07,19,07,34,21.00
2015,07,19,07,35,21.10
2015,07,19,07,36,21.20
2015,07,19,07,37,21.30
2015,07,19,07,38,21.30
2015,07,19,07,39,21.40
2015,07,19,07,40,21.60
2015,07,19,07,41,21.60
2015,07,19,07,42,21.80
2015,07,19,07,43,21.80
2015,07,19,07,44,21.90
2015,07,19,07,45,22.00
2015,07,19,07,46,22.00
2015,07,19,07,47,22.10
2015,07,19,07,48,22.20
2015,07,19,07,49,22.20
2015,07,19,07,50,22.30
2015,07,19,07,51,22.30
2015,07,19,07,52,22.30
2015,07,19,07,53,22.40
2015,07,19,07,54,22.40
2015,07,19,07,55,22.40
2015,07,19,07,56,22.50
2015,07,19,07,57,22.50
2015,07,19,07,58,22.60
2015,07,19,07,59,22.60
2015,07,19,08,00,22.70
2015,07,19,08,01,22.80
2015,07,19,08,02,22.90
2015,07,19,08,03,22.90
2015,07,19,08,04,22.90
2015,07,19,08,05,22.90
2015,07,19,08,06,22.90
2015,07,19,08,07,23.00
2015,07,19,08,08,23.00
2015,07,19,08,09,23.10
2015,07,19,08,10,23.10
2015,07,19,08,11,23.10
2015,07,19,08,12,23.20
2015,07,19,08,13,23.20
2015,07,19,08,14,23.30
2015,07,19,08,15,23.40
2015,07,19,08,16,23.40
2015,07,19,08,17,23.50
2015,07,19,08,18,23.60
2015,07,19,08,19,23.70
2015,07,19,08,20,23.70
2015,07,19,08,21,23.80
2015,07,19,08,22,23.80
2015,07,19,08,23,23.80
2015,07,19,08,24,23.80
2015,07,19,08,25,23.80
2015,07,19,08,26,23.80
2015,07,19,08,27,23.70
2015,07,19,08,28,23.70
2015,07,19,08,29,23.70
2015,07,19,08,30,23.80
2015,07,19,08,31,23.80
2015,07,19,08,32,23.80
2015,07,19,08,33,23.80
2015,07,19,08,34,23.80
2015,07,19,08,35,23.80
2015,07,19,08,36,23.80
2015,07,19,08,37,23.80
2015,07,19,08,38,23.80
2015,07,19,08,39,23.80
2015,07,19,08,40,23.80
2015,07,19,08,41,23.80
2015,07,19,08,42,23.80
2015,07,19,08,43,23.80
2015,07,19,08,44,23.80
2015,07,19,08,45,23.90
2015,07,19,08,46,23.90
2015,07,19,08,47,23.90
2015,07,19,08,48,23.90
2015,07,19,08,49,24.00
2015,07,19,08,50,24.00
2015,07,19,08,51,24.10
2015,07,19,08,52,24.10
2015,07,19,08,53,24.10
2015,07,19,08,54,24.10
2015,07,19,08,55,24.10
2015,07,19,08,56,24.10
2015,07,19,08,57,24.10
2015,07,19,08,58,24.20
2015,07,19,08,59,24.20
2015,07,19,09,00,24.20
2015,07,19,09,01,24.20
2015,07,19,09,02,24.20
2015,07,19,09,03,24.20
2015,07,19,09,04,24.20
2015,07,19,09,05,24.20
2015,07,19,09,06,24.30
2015,07,19,09,07,24.30
2015,07,19,09,08,24.30
2015,07,19,09,09,24.30
2015,07,19,09,10,24.30
2015,07,19,09,11,24.30
2015,07,19,09,12,24.30
2015,07,19,09,13,24.30
2015,07,19,09,14,24.30
2015,07,19,09,15,24.30
2015,07,19,09,16,24.40
2015,07,19,09,17,24.40
2015,07,19,09,18,24.50
2015,07,19,09,19,24.60
2015,07,19,09,20,24.60
2015,07,19,09,21,24.60
2015,07,19,09,22,24.60
2015,07,19,09,23,24.60
2015,07,19,09,24,24.70
2015,07,19,09,25,24.70
2015,07,19,09,26,24.70
2015,07,19,09,27,24.70
2015,07,19,09,28,24.80
2015,07,19,09,29,24.80
2015,07,19,09,30,24.90
2015,07,19,09,31,25.00
2015,07,19,09,32,25.10
2015,07,19,09,33,25.20
2015,07,19,09,34,25.30
2015,07,19,09,35,25.30
2015,07,19,09,36,25.30
2015,07,19,09,37,25.30
2015,07,19,09,38,25.30
2015,07,19,09,39,25.30
2015,07,19,09,40,25.40
2015,07,19,09,41,25.40
2015,07,19,09,42,25.50
2015,07,19,09,43,25.50
2015,07,19,09,44,25.60
2015,07,19,09,45,25.60
2015,07,19,09,46,25.70
2015,07,19,09,47,25.70
2015,07,19,09,48,25.80
2015,07,19,09,49,25.80
2015,07,19,09,50,25.80
2015,07,19,09,51,25.80
2015,07,19,09,52,25.90
2015,07,19,09,53,25.90
2015,07,19,09,54,25.80
2015,07,19,09,55,25.80
2015,07,19,09,56,25.80
2015,07,19,09,57,25.90
2015,07,19,09,58,25.90
2015,07,19,09,59,26.00
2015,07,19,10,00,26.00
2015,07,19,10,01,26.10
2015,07,19,10,02,26.10
2015,07,19,10,03,26.10
2015,07,19,10,04,26.10
2015,07,19,10,05,26.10
2015,07,19,10,06,26.10
2015,07,19,10,07,26.20
2015,07,19,10,08,26.30
2015,07,19,10,09,26.30
2015,07,19,10,10,26.30
2015,07,19,10,11,26.30
2015,07,19,10,12,26.30
2015,07,19,10,13,26.40
2015,07,19,10,14,26.40
2015,07,19,10,15,26.50
2015,07,19,10,16,26.50
2015,07,19,10,17,26.50
2015,07,19,10,18,26.60
2015,07,19,10,19,26.60
2015,07,19,10,20,26.50
2015,07,19,10,21,26.40
2015,07,19,10,22,26.40
2015,07,19,10,23,26.40
2015,07,19,10,24,26.50
2015,07,19,10,25,26.50
2015,07,19,10,26,26.50
2015,07,19,10,27,26.60
2015,07,19,10,28,26.70
2015,07,19,10,29,26.80
2015,07,19,10,30,26.90
2015,07,19,10,31,27.10
2015,07,19,10,32,27.20
2015,07,19,10,33,27.40
2015,07,19,10,34,27.40
2015,07,19,10,35,27.50
2015,07,19,10,36,27.60
2015,07,19,10,37,27.60
2015,07,19,10,38,27.50
2015,07,19,10,39,27.50
2015,07,19,10,40,27.40
2015,07,19,10,41,27.40
2015,07,19,10,42,27.40
2015,07,19,10,43,27.50
2015,07,19,10,44,27.50
2015,07,19,10,45,27.70
2015,07,19,10,46,27.90
2015,07,19,10,47,28.10
2015,07,19,10,48,28.20
2015,07,19,10,49,28.30
2015,07,19,10,50,28.30
2015,07,19,10,51,28.20
2015,07,19,10,52,28.20
2015,07,19,10,53,28.10
2015,07,19,10,54,28.00
2015,07,19,10,55,28.00
2015,07,19,10,56,28.00
2015,07,19,10,57,27.90
2015,07,19,10,58,28.00
2015,07,19,10,59,28.10
2015,07,19,11,00,28.10
2015,07,19,11,01,28.20
2015,07,19,11,02,28.10
2015,07,19,11,03,28.20
2015,07,19,11,04,28.20
2015,07,19,11,05,28.20
2015,07,19,11,06,28.20
2015,07,19,11,07,28.10
2015,07,19,11,08,28.10
2015,07,19,11,09,28.10
2015,07,19,11,10,28.00
2015,07,19,11,11,28.00
2015,07,19,11,12,28.00
2015,07,19,11,13,28.00
2015,07,19,11,14,28.10
2015,07,19,11,15,28.10
2015,07,19,11,16,28.20
2015,07,19,11,17,28.40
2015,07,19,11,18,28.50
2015,07,19,11,19,28.50
2015,07,19,11,20,28.60
2015,07,19,11,21,28.70
2015,07,19,11,22,28.70
2015,07,19,11,23,28.70
2015,07,19,11,24,28.80
2015,07,19,11,25,29.00
2015,07,19,11,26,29.10
2015,07,19,11,27,29.30
2015,07,19,11,28,29.40
2015,07,19,11,29,29.50
2015,07,19,11,30,29.60
2015,07,19,11,31,29.60
2015,07,19,11,32,29.70
2015,07,19,11,33,29.70
2015,07,19,11,34,29.60
2015,07,19,11,35,29.60
2015,07,19,11,36,29.60
2015,07,19,11,37,29.60
2015,07,19,11,38,29.70
2015,07,19,11,39,29.60
2015,07,19,11,40,29.60
2015,07,19,11,41,29.60
2015,07,19,11,42,29.60
2015,07,19,11,43,29.50
2015,07,19,11,44,29.30
2015,07,19,11,45,29.30
2015,07,19,11,46,29.20
2015,07,19,11,47,29.10
2015,07,19,11,48,29.00
2015,07,19,11,49,28.80
2015,07,19,11,50,28.70
2015,07,19,11,51,28.60
2015,07,19,11,52,28.50
2015,07,19,11,53,28.40
2015,07,19,11,54,28.30
2015,07,19,11,55,28.20
2015,07,19,11,56,28.10
2015,07,19,11,57,28.00
2015,07,19,11,58,28.00
2015,07,19,11,59,28.00
2015,07,19,12,00,28.00
2015,07,19,12,01,28.20
2015,07,19,12,02,28.30
2015,07,19,12,03,28.50
2015,07,19,12,04,28.70
2015,07,19,12,05,28.80
2015,07,19,12,06,29.00
2015,07,19,12,07,29.10
2015,07,19,12,08,29.10
2015,07,19,12,09,29.30
2015,07,19,12,10,29.40
2015,07,19,12,11,29.50
2015,07,19,12,12,29.60
2015,07,19,12,13,29.70
2015,07,19,12,14,29.70
2015,07,19,12,15,29.80
2015,07,19,12,16,29.90
2015,07,19,12,17,30.00
2015,07,19,12,18,30.10
2015,07,19,12,19,30.20
2015,07,19,12,20,30.20
2015,07,19,12,21,30.20
2015,07,19,12,22,30.20
2015,07,19,12,23,30.20
2015,07,19,12,24,30.20
2015,07,19,12,25,30.30
2015,07,19,12,26,30.40
2015,07,19,12,27,30.40
2015,07,19,12,28,30.50
2015,07,19,12,29,30.50
2015,07,19,12,30,30.50
2015,07,19,12,31,30.60
2015,07,19,12,32,30.60
2015,07,19,12,33,30.60
2015,07,19,12,34,30.70
2015,07,19,12,35,30.70
2015,07,19,12,36,30.70
2015,07,19,12,37,30.70
2015,07,19,12,38,30.70
2015,07,19,12,39,30.80
2015,07,19,12,40,30.90
2015,07,19,12,41,31.00
2015,07,19,12,42,31.10
2015,07,19,12,43,31.00
2015,07,19,12,44,31.00
2015,07,19,12,45,30.90
2015,07,19,12,46,30.90
2015,07,19,12,47,30.90
2015,07,19,12,48,31.00
2015,07,19,12,49,31.20
2015,07,19,12,50,31.30
2015,07,19,12,51,31.40
2015,07,19,12,52,31.50
2015,07,19,12,53,31.60
2015,07,19,12,54,31.70
2015,07,19,12,55,31.70
2015,07,19,12,56,31.60
2015,07,19,12,57,31.50
2015,07,19,12,58,31.40
2015,07,19,12,59,31.40
2015,07,19,13,00,31.50
2015,07,19,13,01,31.50
2015,07,19,13,02,31.60
2015,07,19,13,03,31.60
2015,07,19,13,04,31.70
2015,07,19,13,05,31.80
2015,07,19,13,06,31.90
2015,07,19,13,07,31.90
2015,07,19,13,08,32.00
2015,07,19,13,09,32.10
2015,07,19,13,10,32.20
2015,07,19,13,11,32.30
2015,07,19,13,12,32.30
2015,07,19,13,13,32.40
2015,07,19,13,14,32.40
2015,07,19,13,15,32.40
2015,07,19,13,16,32.40
2015,07,19,13,17,32.50
2015,07,19,13,18,32.60
2015,07,19,13,19,32.60
2015,07,19,13,20,32.70
2015,07,19,13,21,32.80
2015,07,19,13,22,32.90
2015,07,19,13,23,33.00
2015,07,19,13,24,33.00
2015,07,19,13,25,33.10
2015,07,19,13,26,33.20
2015,07,19,13,27,33.20
2015,07,19,13,28,33.20
2015,07,19,13,29,33.20
2015,07,19,13,30,33.20
2015,07,19,13,31,33.10
2015,07,19,13,32,33.10
2015,07,19,13,33,33.10
2015,07,19,13,34,33.10
2015,07,19,13,35,33.20
2015,07,19,13,36,33.20
2015,07,19,13,37,33.20
2015,07,19,13,38,33.10
2015,07,19,13,39,33.10
2015,07,19,13,40,33.10
2015,07,19,13,41,33.10
2015,07,19,13,42,33.10
2015,07,19,13,43,33.10
2015,07,19,13,44,33.20
2015,07,19,13,45,33.30
2015,07,19,13,46,33.40
2015,07,19,13,47,33.40
2015,07,19,13,48,33.50
2015,07,19,13,49,33.50
2015,07,19,13,50,33.40
2015,07,19,13,51,33.40
2015,07,19,13,52,33.50
2015,07,19,13,53,33.40
2015,07,19,13,54,33.40
2015,07,19,13,55,33.40
2015,07,19,13,56,33.30
2015,07,19,13,57,33.30
2015,07,19,13,58,33.30
2015,07,19,13,59,33.50
2015,07,19,14,00,33.60
2015,07,19,14,01,33.70
2015,07,19,14,02,33.60
2015,07,19,14,03,33.60
2015,07,19,14,04,33.40
2015,07,19,14,05,33.30
2015,07,19,14,06,33.30
2015,07,19,14,07,33.20
2015,07,19,14,08,33.10
2015,07,19,14,09,33.20
2015,07,19,14,10,33.30
2015,07,19,14,11,33.50
2015,07,19,14,12,33.60
2015,07,19,14,13,33.70
2015,07,19,14,14,33.70
2015,07,19,14,15,33.70
2015,07,19,14,16,33.60
2015,07,19,14,17,33.60
2015,07,19,14,18,33.50
2015,07,19,14,19,33.40
2015,07,19,14,20,33.40
2015,07,19,14,21,33.40
2015,07,19,14,22,33.30
2015,07,19,14,23,33.30
2015,07,19,14,24,33.20
2015,07,19,14,25,33.20
2015,07,19,14,26,33.20
2015,07,19,14,27,33.10
2015,07,19,14,28,33.10
2015,07,19,14,29,33.10
2015,07,19,14,30,33.10
2015,07,19,14,31,33.10
2015,07,19,14,32,33.10
2015,07,19,14,33,33.00
2015,07,19,14,34,33.00
2015,07,19,14,35,32.90
2015,07,19,14,36,32.80
2015,07,19,14,37,32.80
2015,07,19,14,38,32.80
2015,07,19,14,39,32.70
2015,07,19,14,40,32.70
2015,07,19,14,41,32.70
2015,07,19,14,42,32.70
2015,07,19,14,43,32.70
2015,07,19,14,44,32.80
2015,07,19,14,45,32.90
2015,07,19,14,46,32.90
2015,07,19,14,47,33.00
2015,07,19,14,48,33.00
2015,07,19,14,49,33.20
2015,07,19,14,50,33.30
2015,07,19,14,51,33.30
2015,07,19,14,52,33.30
2015,07,19,14,53,33.30
2015,07,19,14,54,33.40
2015,07,19,14,55,33.50
2015,07,19,14,56,33.60
2015,07,19,14,57,33.60
2015,07,19,14,58,33.60
2015,07,19,14,59,33.60
2015,07,19,15,00,33.60
2015,07,19,15,01,33.60
2015,07,19,15,02,33.60
2015,07,19,15,03,33.60
2015,07,19,15,04,33.60
2015,07,19,15,05,33.70
2015,07,19,15,06,33.70
2015,07,19,15,07,33.80
2015,07,19,15,08,33.90
2015,07,19,15,09,34.10
2015,07,19,15,10,34.10
2015,07,19,15,11,33.90
2015,07,19,15,12,33.80
2015,07,19,15,13,33.70
2015,07,19,15,14,33.70
2015,07,19,15,15,33.70
2015,07,19,15,16,33.70
2015,07,19,15,17,33.70
2015,07,19,15,18,33.70
2015,07,19,15,19,33.50
2015,07,19,15,20,33.40
2015,07,19,15,21,33.40
2015,07,19,15,22,33.30
2015,07,19,15,23,33.30
2015,07,19,15,24,33.30
2015,07,19,15,25,33.40
2015,07,19,15,26,33.40
2015,07,19,15,27,33.40
2015,07,19,15,28,33.50
2015,07,19,15,29,33.60
2015,07,19,15,30,33.60
2015,07,19,15,31,33.50
2015,07,19,15,32,33.40
2015,07,19,15,33,33.30
2015,07,19,15,34,33.20
2015,07,19,15,35,33.20
2015,07,19,15,36,33.10
2015,07,19,15,37,33.00
2015,07,19,15,38,33.10
2015,07,19,15,39,33.10
2015,07,19,15,40,33.10
2015,07,19,15,41,33.10
2015,07,19,15,42,33.10
2015,07,19,15,43,33.30
2015,07,19,15,44,33.20
2015,07,19,15,45,33.10
2015,07,19,15,46,33.10
2015,07,19,15,47,33.20
2015,07,19,15,48,33.30
2015,07,19,15,49,33.30
2015,07,19,15,50,33.30
2015,07,19,15,51,33.20
2015,07,19,15,52,33.20
2015,07,19,15,53,33.20
2015,07,19,15,54,33.20
2015,07,19,15,55,33.20
2015,07,19,15,56,33.30
2015,07,19,15,57,33.40
2015,07,19,15,58,33.40
2015,07,19,15,59,33.40
2015,07,19,16,00,33.40
2015,07,19,16,01,33.40
2015,07,19,16,02,33.40
2015,07,19,16,03,33.30
2015,07,19,16,04,33.30
2015,07,19,16,05,33.30
2015,07,19,16,06,33.30
2015,07,19,16,07,33.20
2015,07,19,16,08,33.20
2015,07,19,16,09,33.20
2015,07,19,16,10,33.30
2015,07,19,16,11,33.40
2015,07,19,16,12,33.50
2015,07,19,16,13,33.60
2015,07,19,16,14,33.60
2015,07,19,16,15,33.60
2015,07,19,16,16,33.60
2015,07,19,16,17,33.60
2015,07,19,16,18,33.50
2015,07,19,16,19,33.60
2015,07,19,16,20,33.70
2015,07,19,16,21,33.50
2015,07,19,16,22,33.30
2015,07,19,16,23,33.20
2015,07,19,16,24,33.10
2015,07,19,16,25,33.00
2015,07,19,16,26,33.00
2015,07,19,16,27,32.90
2015,07,19,16,28,32.90
2015,07,19,16,29,32.90
2015,07,19,16,30,33.00
2015,07,19,16,31,33.10
2015,07,19,16,32,33.20
2015,07,19,16,33,33.30
2015,07,19,16,34,33.20
2015,07,19,16,35,33.20
2015,07,19,16,36,33.30
2015,07,19,16,37,33.30
2015,07,19,16,38,33.20
2015,07,19,16,39,33.20
2015,07,19,16,40,33.20
2015,07,19,16,41,33.10
2015,07,19,16,42,33.10
2015,07,19,16,43,33.10
2015,07,19,16,44,33.10
2015,07,19,16,45,33.20
2015,07,19,16,46,33.30
2015,07,19,16,47,33.30
2015,07,19,16,48,33.30
2015,07,19,16,49,33.30
2015,07,19,16,50,33.30
2015,07,19,16,51,33.20
2015,07,19,16,52,33.10
2015,07,19,16,53,33.10
2015,07,19,16,54,33.10
2015,07,19,16,55,32.90
2015,07,19,16,56,32.80
2015,07,19,16,57,32.80
2015,07,19,16,58,32.70
2015,07,19,16,59,32.70
2015,07,19,17,00,32.70
2015,07,19,17,01,32.70
2015,07,19,17,02,32.70
2015,07,19,17,03,32.70
2015,07,19,17,04,32.60
2015,07,19,17,05,32.60
2015,07,19,17,06,32.50
2015,07,19,17,07,32.50
2015,07,19,17,08,32.50
2015,07,19,17,09,32.60
2015,07,19,17,10,32.70
2015,07,19,17,11,32.70
2015,07,19,17,12,32.70
2015,07,19,17,13,32.70
2015,07,19,17,14,32.70
2015,07,19,17,15,32.60
2015,07,19,17,16,32.60
2015,07,19,17,17,32.70
2015,07,19,17,18,32.60
2015,07,19,17,19,32.40
2015,07,19,17,20,32.40
2015,07,19,17,21,32.40
2015,07,19,17,22,32.50